DMSP 5D-2 F13 DEB, 40582

Orbit data source: Space-Track

DMSP 5D-2 F13 DEB, 40582 is space debris in SSO originally from a launch on Fri, 24 Mar 1995 UTC launched from the Air Force Western Test Range (AFWTR). Debris objects in space refer to the collection of defunct objects orbiting the Earth. Examples of debris include non-operational satellites, rocket bodies, and fragments generated from explosions, collisions, or faulty payload assembly.

Loading next visibility...
Identifier
40582, 1995-015ER
Orbit
SSO
Country
Flag of USUS
Related business
Manufacturer
Unknown
Mission
Spacecraft
Bus & Motor
Unknown
Mass
Unknown
Launch date (UTC)
1995-03-24 (31 years ago)
Launch vehicle
Unknown
Launch site
Air Force Western Test Range (AFWTR)
Object type
Payload
Rocket body
Debris
Shape & HBR
Unknown shape, 0.1 m
Radar Cross Section
Small (<0.1 m²)

Expand to show TLE details & history
Last TLE update: 19 hours ago

TLE from 19 hours ago
0 DMSP 5D-2 F13 DEB
1 40582U 95015ER  25291.67227120  .00012494  00000-0  52133-2 0  9991
2 40582  98.7174 194.5362 0077101 102.3267 258.6557 14.24718013540013
Epoch: 2025-10-18T16:08Z
TLE epoch observation values (Epoch: 2025-10-18T16:08:04.231Z)
Latitude
-0.00002°
Longitude
-74.88135°
Altitude
823.675 km
Speed
7.435 km/s
True Right ascension
12h 58m 08s
True Declination
0° 00' 00"
Sunlit
Object was in daylight at epoch
Visualization orbit readout
Latitude
Unknown
Longitude
Unknown
Altitude
Unknown
Speed
Unknown
Apparent Right ascension
Unknown
Apparent Declination
Unknown
Sunlit
N/A
Visualization observer readout
Local Sidereal Time
06:19:36
Azimuth
Unknown
Elevation
Unknown
Doppler factor
Unknown
Orbital elements
Apogee altitude
861.988 km
Perigee altitude
751.198 km
Semi-major axis
7,184.73 km
Eccentricity
0.00771
Inclination
98.7174°
RAAN
194.5362°
Arg. of periapsis
102.3267°
True anomaly
257.79112°
Mean anomaly
258.6557°
Eccentric anomaly
258.22324°
Mean motion
3.56392 °/min
Orbital period
101.01 mins
BSTAR
0.0052133

Documentation

Showing up to 5 results
|